15min,AgWx,beryljct,423,03SEP2021:00:00:00,59.0,12.86,62.9,63.0,61.3,63.7,57.8,58,66,52,1.058,46.2,46.7,45.8,4.867,2.5,172,31,4.9,-0.00004,-0.00002,65.3,67.0,24,0,0,.,13.66,0.00,0.00
15min,AgWx,beryljct,423,03SEP2021:00:15:00,58.8,12.86,60.3,58.8,58.8,63.0,56.7,65,71,54,1.099,46.9,47.4,46.0,4.845,5.2,146,11,6.1,0.00011,0.00018,65.1,66.9,24,0,0,.,13.66,0.00,0.00
15min,AgWx,beryljct,423,03SEP2021:00:30:00,58.7,12.85,60.8,60.8,61.1,62.0,58.9,60,65,58,1.093,46.9,47.1,46.8,4.516,4.0,175,8.1,5.2,0.00008,0.00015,64.9,66.9,24,0,0,.,13.67,0.00,0.00
15min,AgWx,beryljct,423,03SEP2021:00:45:00,59.3,12.84,65.0,65.2,63.5,65.6,60.6,56,61,52,1.130,47.6,47.9,47.0,6.642,6.7,201,6.2,10.2,0.00030,0.00042,64.8,66.8,24,0,0,.,13.66,0.00,0.00
15min,AgWx,beryljct,423,03SEP2021:01:00:00,60.8,12.85,64.0,64.3,65.0,65.5,64.3,53,55,52,1.123,47.6,47.9,47.4,6.05,6.9,199,5.3,8.9,0.00035,0.00050,64.6,66.8,24,0,0,.,13.66,0.00,0.00
15min,AgWx,beryljct,423,03SEP2021:01:15:00,61.2,12.82,57.5,58.4,61.7,64.2,58.2,60,69,55,1.129,47.8,48.1,47.4,4.384,4.3,185,22,5.8,0.00011,0.00018,64.4,66.7,24,0,0,.,13.66,0.00,0.00
15min,AgWx,beryljct,423,03SEP2021:01:30:00,60.4,12.84,60.7,60.5,59.9,61.3,57.0,63,71,59,1.096,47.3,47.9,46.9,4.516,4.8,170,12,5.8,0.00010,0.00017,64.3,66.7,24,0,0,.,13.66,0.00,0.00
15min,AgWx,beryljct,423,03SEP2021:01:45:00,60.0,12.83,59.6,59.3,60.3,61.6,58.8,62,66,59,1.107,47.2,47.4,47.0,5.722,5.5,168,11,6.7,0.00016,0.00024,64.1,66.6,24,0,0,.,13.66,0.00,0.00
15min,AgWx,beryljct,423,03SEP2021:02:00:00,59.3,12.82,56.3,57.9,58.5,59.6,57.9,66,68,64,1.101,47.2,47.4,47.0,4.867,5.6,171,9.6,7.7,0.00012,0.00018,64.0,66.6,24,0,0,.,13.66,0.00,0.00
15min,AgWx,beryljct,423,03SEP2021:02:15:00,58.5,12.82,56.6,56.2,56.8,57.7,56.2,70,71,67,1.094,47.0,47.2,46.7,4.911,5.5,168,7.3,6.5,0.00008,0.00013,63.9,66.5,24,0,0,.,13.66,0.00,0.00
15min,AgWx,beryljct,423,03SEP2021:02:30:00,57.7,12.81,54.9,55.1,56.2,57.0,55.1,71,73,68,1.089,46.8,47.0,46.4,4.779,4.9,173,11,6.1,0.00004,0.00009,63.8,66.5,24,0,0,.,13.66,0.00,0.00
15min,AgWx,beryljct,423,03SEP2021:02:45:00,56.8,12.8,55.7,55.0,55.0,56.0,54.5,74,75,71,1.095,46.8,47.2,46.6,4.187,4.6,168,5.7,5.3,0.00000,0.00003,63.6,66.4,24,0,0,.,13.66,0.00,0.00
15min,AgWx,beryljct,423,03SEP2021:03:00:00,55.9,12.8,50.5,51.1,53.0,55.6,50.8,77,82,72,1.048,46.1,47.0,45.0,2.981,3.2,246,45,4.9,-0.00008,-0.00009,63.5,66.3,24,0,0,.,13.66,0.00,0.00
15min,AgWx,beryljct,423,03SEP2021:03:15:00,54.8,12.79,54.8,52.4,51.5,52.4,51.0,79,82,75,1.006,45.2,46.0,44.6,5.59,3.5,299,6.9,6.1,-0.00008,-0.00008,63.3,66.3,24,0,0,.,13.66,0.00,0.00
15min,AgWx,beryljct,423,03SEP2021:03:30:00,54.2,12.78,53.3,53.5,53.9,55.8,52.4,69,74,64,0.981,44.1,44.6,43.6,2.214,3.6,313,5.7,6.1,-0.00002,0.00000,63.2,66.2,24,0,0,.,13.66,0.00,0.00
15min,AgWx,beryljct,423,03SEP2021:03:45:00,53.6,12.77,50.8,52.1,53.2,54.4,52.1,70,73,66,0.974,43.8,44.1,43.3,0,1.2,319,0.9,2.4,-0.00020,-0.00027,63.0,66.2,24,0,0,.,13.66,0.00,0.00
15min,AgWx,beryljct,423,03SEP2021:04:00:00,52.9,12.76,53.4,52.1,51.5,52.1,50.8,76,78,74,1.003,44.1,44.8,43.8,1.096,0.7,208,1.0,2.6,-0.00026,-0.00038,62.9,66.1,25,0,0,.,13.66,0.00,0.00
15min,AgWx,beryljct,423,03SEP2021:04:15:00,52.5,12.76,53.6,53.1,53.0,54.4,52.1,72,77,67,0.960,44.2,45.4,43.4,1.271,1.6,199,10,2.6,-0.00017,-0.00023,62.8,66.0,24,0,0,.,13.66,0.00,0.00
15min,AgWx,beryljct,423,03SEP2021:04:30:00,52.0,12.76,50.0,49.4,50.0,53.1,49.0,80,83,70,0.990,44.0,44.5,43.2,0,1.1,189,0.3,2.7,-0.00022,-0.00030,62.7,66.0,25,0,0,.,13.66,0.00,0.00
15min,AgWx,beryljct,423,03SEP2021:04:45:00,51.3,12.75,51.2,50.9,50.7,51.5,49.5,77,82,74,0.974,43.9,44.5,43.4,0,0.2,189,0.0,0.8,-0.00030,-0.00047,62.5,65.9,24,0,0,.,13.66,0.00,0.00
15min,AgWx,beryljct,423,03SEP2021:05:00:00,50.9,12.74,48.4,47.0,49.2,51.9,46.7,79,85,73,0.925,43.0,44.1,42.1,4.231,3.1,282,61,4.6,-0.00010,-0.00011,62.3,65.8,25,0,0,.,13.66,0.00,0.00
15min,AgWx,beryljct,423,03SEP2021:05:15:00,50.2,12.74,49.6,48.9,48.7,50.4,47.1,79,84,74,0.940,42.4,43.2,41.6,2.609,3.1,325,4.9,4.5,-0.00010,-0.00011,62.2,65.8,24,0,0,.,13.67,0.00,0.00
15min,AgWx,beryljct,423,03SEP2021:05:30:00,49.8,12.73,49.5,48.2,47.9,49.2,47.2,82,85,77,0.954,42.6,43.3,41.8,3.398,1.2,329,4.2,3.4,0.00006,0.00010,62.0,65.7,24,0,0,.,13.66,0.00,0.00
15min,AgWx,beryljct,423,03SEP2021:05:45:00,49.5,12.72,50.1,49.8,48.3,49.8,47.0,81,84,77,0.937,42.6,43.4,41.8,2.718,2.9,13,19,4.2,0.00014,0.00023,61.9,65.6,24,0,0,.,13.67,0.00,0.00
15min,AgWx,beryljct,423,03SEP2021:06:00:00,49.2,12.71,46.1,45.9,47.3,49.9,45.9,82,87,77,0.910,42.1,42.9,41.5,0,2.0,358,3.5,3.7,0.00010,0.00016,61.7,65.6,24,1,0,.,13.67,0.00,0.00
15min,AgWx,beryljct,423,03SEP2021:06:15:00,48.7,12.71,46.4,46.1,46.0,46.6,45.6,87,88,85,0.920,42.4,43.0,42.0,2.148,1.3,85,48,2.8,0.00007,0.00010,61.5,65.5,24,5,0,.,13.67,0.00,0.00
15min,AgWx,beryljct,423,03SEP2021:06:30:00,48.4,12.72,46.4,46.3,46.1,46.4,45.6,89,91,87,0.957,43.1,43.6,42.5,0,0.9,193,57,3.5,0.00018,0.00021,61.4,65.4,24,28,0,.,13.67,0.00,0.00
15min,AgWx,beryljct,423,03SEP2021:06:45:00,48.5,12.73,47.7,47.2,46.4,47.2,46.0,89,90,88,0.980,43.5,44.2,42.9,0,0.9,146,0.1,2.4,0.00037,0.00041,61.3,65.3,24,63,0,.,13.67,0.00,0.00
15min,AgWx,beryljct,423,03SEP2021:07:00:00,49.2,12.71,50.7,50.0,48.7,50.1,47.2,86,89,82,1.009,44.7,45.8,43.4,0,1.4,204,16,3.2,0.00057,0.00065,61.1,65.3,24,108,0,.,13.66,0.00,0.00
15min,AgWx,beryljct,423,03SEP2021:07:15:00,50.8,12.77,51.0,50.9,50.6,51.0,50.2,83,85,80,1.023,45.7,46.4,44.9,1.403,0.8,206,0.1,1.6,0.00081,0.00088,61.0,65.2,25,156,0,.,13.66,0.00,0.00
15min,AgWx,beryljct,423,03SEP2021:07:30:00,52.8,12.9,52.8,52.7,51.8,52.7,50.9,80,81,78,1.074,45.7,46.5,44.9,0,0.4,207,0.7,1.5,0.00109,0.00117,60.9,65.1,25,212,0,.,13.66,0.00,0.00
15min,AgWx,beryljct,423,03SEP2021:07:45:00,55.4,13.16,54.8,54.8,53.9,54.8,52.6,78,80,75,1.100,47.1,48.5,45.9,1.228,0.3,217,12,1.2,0.00148,0.00160,60.8,65.1,24,283,0,.,13.66,0.00,0.00
15min,AgWx,beryljct,423,03SEP2021:08:00:00,58.3,13.45,58.2,58.0,56.3,58.0,54.8,72,75,70,1.149,47.5,48.3,46.5,0.68,1.9,335,12,2.9,0.00183,0.00205,60.8,65.0,24,330,0,.,13.66,0.00,0.00
15min,AgWx,beryljct,423,03SEP2021:08:15:00,60.6,13.94,60.3,60.1,59.3,60.3,58.0,68,72,64,1.177,48.7,49.8,47.7,0,1.1,341,0.9,2.2,0.00167,0.00185,60.7,64.9,24,278,0,.,13.66,0.00,0.00
15min,AgWx,beryljct,423,03SEP2021:08:30:00,62.5,14.26,63.1,63.0,61.2,63.0,60.1,65,70,58,1.193,49.4,51.2,48.0,1.776,0.5,346,2.4,2.4,0.00194,0.00210,60.8,64.8,24,318,0,.,13.66,0.00,0.00
15min,AgWx,beryljct,423,03SEP2021:08:45:00,64.9,13.55,65.0,65.2,64.2,65.2,63.0,56,61,53,1.144,48.1,49.5,47.2,3.288,2.6,351,9.4,3.6,0.00254,0.00294,60.7,64.7,24,382,0,.,13.65,0.00,0.00
15min,AgWx,beryljct,423,03SEP2021:09:00:00,67.0,14.2,66.5,66.6,65.9,66.8,65.2,51,55,49,1.144,47.5,49.2,46.3,1.995,2.4,350,12,3.5,0.00286,0.00329,60.5,64.7,24,432,0,.,13.65,0.00,0.00
15min,AgWx,beryljct,423,03SEP2021:09:15:00,69.5,14.15,68.3,68.3,67.7,69.0,66.7,49,55,46,1.129,48.1,52.3,46.5,0.702,1.3,7.2,16,2.6,0.00340,0.00376,60.7,64.6,23,524,0,.,13.64,0.00,0.00
15min,AgWx,beryljct,423,03SEP2021:09:30:00,72.4,14.06,68.8,68.9,68.8,69.4,68.3,49,52,46,1.230,48.6,50.8,47.1,1.71,1.4,49,20,3.7,0.00385,0.00427,61.0,64.5,24,590,0,.,13.64,0.00,0.00
15min,AgWx,beryljct,423,03SEP2021:09:45:00,74.5,14.01,70.3,70.2,69.5,70.2,68.9,47,52,44,1.232,48.5,51.3,46.3,1.556,1.7,79,13,3.0,0.00422,0.00469,61.2,64.5,23,640,0,.,13.64,0.00,0.00
15min,AgWx,beryljct,423,03SEP2021:10:00:00,76.2,14,71.5,71.3,70.7,71.5,70.0,48,56,44,1.272,50.0,54.7,47.4,1.754,2.2,73,19,4.2,0.00454,0.00509,61.4,64.4,23,677,0,.,13.64,0.00,0.00
15min,AgWx,beryljct,423,03SEP2021:10:15:00,77.5,13.96,72.3,72.2,71.8,72.2,71.3,49,54,45,1.356,51.7,54.6,49.5,4.362,2.4,93,19,4.4,0.00483,0.00541,61.6,64.4,23,713,0,.,13.63,0.00,0.00
15min,AgWx,beryljct,423,03SEP2021:10:30:00,78.2,13.96,72.8,73.0,72.5,73.2,72.0,50,56,43,1.396,52.6,55.9,48.7,5.634,4.0,97,18,6.5,0.00515,0.00593,61.8,64.3,23,746,0,.,13.63,0.00,0.00
15min,AgWx,beryljct,423,03SEP2021:10:45:00,78.7,13.63,73.8,73.8,73.3,74.1,72.7,46,50,42,1.375,51.5,54.5,49.1,5.568,4.5,119,19,8.4,0.00541,0.00629,62.2,64.3,23,772,0,.,13.63,0.00,0.00
15min,AgWx,beryljct,423,03SEP2021:11:00:00,79.3,13.55,76.2,75.3,74.4,75.3,73.7,44,50,39,1.268,50.8,54.8,47.2,0,2.7,118,24,6.4,0.00555,0.00627,62.5,64.3,23,798,0,.,13.63,0.00,0.00
15min,AgWx,beryljct,423,03SEP2021:11:15:00,80.3,13.5,74.9,75.3,75.4,76.0,74.9,40,46,34,1.219,49.1,53.6,45.1,4.626,3.9,111,34,7.3,0.00585,0.00676,63.2,64.3,23,822,0,.,13.63,0.00,0.00
15min,AgWx,beryljct,423,03SEP2021:11:30:00,80.8,13.5,75.7,76.0,75.7,76.1,75.3,41,47,36,1.233,50.2,54.1,46.9,5.787,4.8,69,12,7.6,0.00608,0.00710,63.7,64.2,23,847,0,.,13.63,0.00,0.00
15min,AgWx,beryljct,423,03SEP2021:11:45:00,81.5,13.47,76.6,76.7,76.2,76.7,75.9,38,44,32,1.166,48.8,52.9,44.1,4.626,5.4,69,15,8.0,0.00646,0.00761,63.7,64.2,23,896,0,.,13.62,0.00,0.00
15min,AgWx,beryljct,423,03SEP2021:12:00:00,82.8,13.45,77.8,78.3,77.3,78.4,76.7,35,42,29,0.970,47.7,52.5,43.8,1.863,3.8,47,23,8.2,0.00715,0.00819,64.6,64.2,23,997,0,.,13.62,0.00,0.00
15min,AgWx,beryljct,423,03SEP2021:12:15:00,84.3,13.44,79.6,80.2,79.4,80.3,77.8,32,36,27,1.117,46.8,50.2,42.5,5.042,5.0,202,43,11.3,0.00687,0.00811,65.0,64.3,23,916,0,.,13.62,0.00,0.00
15min,AgWx,beryljct,423,03SEP2021:12:30:00,84.8,13.46,79.6,80.0,79.2,80.2,78.3,32,39,28,1.032,46.8,51.5,43.4,8.64,5.2,194,48,11.7,0.00663,0.00787,65.4,64.3,23,892,0,.,13.62,0.00,0.00
15min,AgWx,beryljct,423,03SEP2021:12:45:00,84.7,13.43,78.2,78.1,79.0,80.6,78.1,35,40,29,1.232,48.9,52.6,45.0,8.75,8.3,162,32,13.0,0.00725,0.00887,65.8,64.3,23,946,0,.,13.62,0.00,0.00
15min,AgWx,beryljct,423,03SEP2021:13:00:00,84.1,13.43,78.5,78.9,78.3,79.3,77.3,36,44,27,0.993,48.9,54.5,42.7,9.97,7.3,161,29,12.2,0.00561,0.00699,66.2,64.4,23,691,0,.,13.63,0.00,0.00
15min,AgWx,beryljct,423,03SEP2021:13:15:00,83.0,13.49,78.8,78.9,77.3,78.9,75.6,35,42,28,1.425,47.5,54.1,41.8,6.686,5.6,143,26,9.7,0.00421,0.00530,66.8,64.4,23,499,0,.,13.63,0.00,0.00
15min,AgWx,beryljct,423,03SEP2021:13:30:00,82.9,13.48,79.1,80.0,79.0,80.6,77.7,31,40,25,1.111,45.7,52.3,41.0,8.37,4.8,184,41,8.6,0.00531,0.00641,67.2,64.5,23,687,0,.,13.62,0.00,0.00
15min,AgWx,beryljct,423,03SEP2021:13:45:00,84.0,13.42,79.2,79.7,79.7,80.9,79.1,34,41,28,1.143,48.8,53.7,44.0,7.037,8.6,152,25,14.5,0.00747,0.00918,67.6,64.5,23,963,0,.,13.63,0.00,0.00
15min,AgWx,beryljct,423,03SEP2021:14:00:00,84.1,13.45,79.0,78.4,78.1,79.7,76.0,37,42,32,1.161,49.6,53.2,45.3,9.08,7.7,146,17,14.0,0.00496,0.00633,67.8,64.6,23,599,0,.,13.63,0.00,0.00
15min,AgWx,beryljct,423,03SEP2021:14:15:00,84.3,13.42,81.6,81.7,80.4,81.7,78.5,28,38,23,0.932,44.2,50.7,40.5,10.19,8.6,200,58,18.0,0.00692,0.00871,68.2,64.7,23,859,0,.,13.63,0.00,0.00
15min,AgWx,beryljct,423,03SEP2021:14:30:00,85.1,13.4,82.2,81.9,81.2,81.9,80.8,26,31,22,0.904,43.0,47.7,38.3,3.398,8.1,214,19,13.1,0.00676,0.00855,68.4,64.8,23,828,0,.,13.63,0.00,0.00
15min,AgWx,beryljct,423,03SEP2021:14:45:00,86.0,13.34,80.1,80.5,81.6,82.2,80.5,27,33,22,0.983,43.9,49.4,39.1,6.379,7.1,184,34,15.7,0.00660,0.00820,69.1,64.9,22,822,0,.,13.63,0.00,0.00
15min,AgWx,beryljct,423,03SEP2021:15:00:00,86.6,13.39,80.8,80.7,80.5,81.5,79.5,29,39,26,0.931,45.6,52.5,42.5,11.27,9.1,188,48,15.0,0.00624,0.00803,69.4,65.0,22,751,0,.,13.63,0.00,0.00
15min,AgWx,beryljct,423,03SEP2021:15:15:00,86.5,13.34,81.3,81.6,81.2,81.6,80.3,27,31,24,0.944,43.8,47.5,41.1,4.647,8.2,197,16,13.9,0.00593,0.00767,69.6,65.1,22,706,0,.,13.63,0.00,0.00
15min,AgWx,beryljct,423,03SEP2021:15:30:00,86.8,13.42,81.6,81.6,81.4,82.3,80.4,27,31,24,0.955,44.6,48.5,40.8,13.85,8.1,194,26,16.3,0.00572,0.00738,69.8,65.2,22,680,0,.,13.63,0.00,0.00
15min,AgWx,beryljct,423,03SEP2021:15:45:00,86.5,13.35,80.3,80.0,81.0,81.8,79.9,27,31,24,0.992,44.0,46.8,41.2,10.98,10.2,198,23,18.5,0.00551,0.00746,69.9,65.3,22,609,0,.,13.63,0.00,0.00
15min,AgWx,beryljct,423,03SEP2021:16:00:00,86.3,13.43,80.5,80.9,81.0,81.5,80.1,26,29,23,0.904,43.1,46.2,39.8,11.11,8.1,208,12,13.8,0.00506,0.00671,70.0,65.4,22,583,0,.,13.63,0.00,0.00
15min,AgWx,beryljct,423,03SEP2021:16:15:00,85.9,13.4,81.0,81.1,80.8,81.3,80.1,27,31,24,0.908,43.4,46.9,40.5,10.68,9.0,207,20,15.4,0.00483,0.00658,70.1,65.6,22,530,0,.,13.63,0.00,0.00
15min,AgWx,beryljct,423,03SEP2021:16:30:00,85.8,13.4,80.6,80.7,80.8,81.4,80.0,27,34,25,1.006,44.0,49.2,41.4,6.138,6.9,181,18,12.1,0.00419,0.00561,70.1,65.7,22,483,0,.,13.63,0.00,0.00
15min,AgWx,beryljct,423,03SEP2021:16:45:00,85.4,13.38,79.7,80.3,80.7,81.1,80.1,26,30,23,0.932,42.8,46.7,39.8,8.11,8.2,203,14,13.8,0.00403,0.00563,70.1,65.8,22,431,0,.,13.63,0.00,0.00
15min,AgWx,beryljct,423,03SEP2021:17:00:00,84.8,13.38,80.4,80.2,80.0,80.7,79.4,25,29,22,0.770,41.5,44.9,37.8,7.212,9.1,203,19,12.6,0.00385,0.00557,70.1,65.9,22,383,0,.,13.63,0.00,0.00
15min,AgWx,beryljct,423,03SEP2021:17:15:00,84.1,13.42,80.0,79.8,80.0,80.4,79.4,24,27,22,0.819,40.5,43.3,38.3,8.55,9.6,181,14,13.8,0.00360,0.00538,70.0,66.0,22,332,0,.,13.63,0.00,0.00
15min,AgWx,beryljct,423,03SEP2021:17:30:00,83.5,13.43,79.2,79.2,79.8,80.3,79.2,24,26,22,0.831,39.7,42.1,37.3,5.437,7.9,182,13,13.1,0.00299,0.00453,70.0,66.1,22,283,0,.,13.63,0.00,0.00
15min,AgWx,beryljct,423,03SEP2021:17:45:00,82.8,13.43,79.3,78.7,79.3,79.9,78.7,24,27,22,0.844,39.4,41.9,36.9,10.98,8.0,178,12,14.4,0.00262,0.00412,69.9,66.2,22,232,0,.,13.63,0.00,0.00
15min,AgWx,beryljct,423,03SEP2021:18:00:00,82.0,13.27,78.9,79.0,79.0,79.6,78.5,23,25,21,0.765,38.0,40.2,36.3,8.4,8.9,190,9.7,13.1,0.00251,0.00415,69.7,66.3,22,183,0,.,13.64,0.00,0.00
15min,AgWx,beryljct,423,03SEP2021:18:15:00,81.0,13.11,78.2,77.9,78.3,79.1,77.7,24,26,22,0.776,38.7,40.7,37.0,9.67,8.6,196,6.4,11.0,0.00139,0.00186,69.6,66.4,22,136,0,.,13.64,0.00,0.00
15min,AgWx,beryljct,423,03SEP2021:18:30:00,79.9,13.07,76.6,76.7,77.1,78.0,76.5,25,27,23,0.795,39.1,40.6,37.3,7.76,7.4,199,6.7,9.5,0.00112,0.00153,69.4,66.5,22,92,0,.,13.64,0.00,0.00
15min,AgWx,beryljct,423,03SEP2021:18:45:00,78.4,13.03,75.2,75.3,76.0,76.8,75.3,25,27,24,0.787,38.1,39.8,36.5,6.204,7.3,198,5.2,9.5,0.00099,0.00136,69.3,66.6,22,50,0,.,13.64,0.00,0.00
15min,AgWx,beryljct,423,03SEP2021:19:00:00,76.6,12.98,71.1,72.3,73.5,75.2,72.3,29,31,26,0.851,39.3,40.4,38.3,4.384,5.7,197,4.6,6.8,0.00062,0.00091,69.1,66.7,22,10,0,.,13.64,0.00,0.00
15min,AgWx,beryljct,423,03SEP2021:19:15:00,74.7,12.96,72.0,71.9,72.1,72.6,71.4,31,32,30,0.797,39.7,40.5,38.6,4.823,5.2,196,11,7.0,0.00050,0.00075,68.9,66.7,22,3,0,.,13.64,0.00,0.00
15min,AgWx,beryljct,423,03SEP2021:19:30:00,73.0,12.96,71.3,71.2,71.2,71.9,70.8,31,33,30,0.823,39.4,40.4,38.5,5.919,5.5,191,8.4,8.2,0.00052,0.00076,68.7,66.7,22,0,0,.,13.64,0.00,0.00
15min,AgWx,beryljct,423,03SEP2021:19:45:00,72.0,12.95,71.5,71.0,71.0,71.4,70.6,32,33,31,0.824,39.9,40.6,39.1,6.226,5.7,209,4.7,7.1,0.00053,0.00077,68.5,66.8,22,0,0,.,13.64,0.00,0.00
15min,AgWx,beryljct,423,03SEP2021:20:00:00,71.2,12.94,69.7,70.5,70.8,71.1,70.5,32,33,31,0.830,39.6,40.3,39.1,4.998,5.5,204,3.2,6.4,0.00050,0.00074,68.2,66.9,22,0,0,.,13.65,0.00,0.00
15min,AgWx,beryljct,423,03SEP2021:20:15:00,70.5,12.93,69.2,69.5,70.1,70.6,69.5,33,34,32,0.847,39.7,40.3,39.1,4.998,5.3,203,3.6,6.8,0.00046,0.00069,67.9,66.9,22,0,0,.,13.64,0.00,0.00
15min,AgWx,beryljct,423,03SEP2021:20:30:00,69.8,12.93,69.3,69.3,69.0,69.4,68.6,35,36,34,0.851,40.4,40.7,39.8,5.787,5.2,212,4.8,6.5,0.00043,0.00063,67.6,66.9,22,0,0,.,13.65,0.00,0.00
15min,AgWx,beryljct,423,03SEP2021:20:45:00,69.4,12.92,70.8,70.7,70.1,70.9,69.2,33,35,31,0.810,39.7,40.5,38.9,6.094,6.3,212,5.5,8.6,0.00058,0.00082,67.3,66.9,22,0,0,.,13.65,0.00,0.00
15min,AgWx,beryljct,423,03SEP2021:21:00:00,69.6,12.92,70.8,70.7,70.9,71.3,70.4,31,32,30,0.810,39.1,39.6,38.4,6.686,6.8,213,7.1,9.1,0.00065,0.00092,67.1,67.0,22,0,0,.,13.64,0.00,0.00
15min,AgWx,beryljct,423,03SEP2021:21:15:00,69.6,12.91,69.2,70.0,70.6,71.0,70.0,32,33,31,0.836,39.2,39.9,38.5,4.954,6.6,218,7.1,8.8,0.00063,0.00088,67.0,67.0,22,0,0,.,13.65,0.00,0.00
15min,AgWx,beryljct,423,03SEP2021:21:30:00,68.6,12.91,65.9,66.2,65.4,69.9,62.9,41,48,34,0.860,41.0,43.2,39.4,3.836,4.7,169,16,7.2,0.00030,0.00046,66.9,67.0,22,0,0,.,13.65,0.00,0.00
15min,AgWx,beryljct,423,03SEP2021:21:45:00,67.7,12.91,63.6,63.3,66.5,68.7,63.0,39,45,35,0.843,40.6,42.1,39.8,3.617,4.6,265,66,7.5,0.00031,0.00048,67.0,67.0,22,0,0,.,13.65,0.00,0.00
15min,AgWx,beryljct,423,03SEP2021:22:00:00,65.9,12.9,58.9,58.9,59.2,63.6,56.5,55,64,42,0.978,42.9,44.8,39.8,1.381,4.5,48,28,6.4,0.00015,0.00023,66.8,67.0,22,0,0,.,13.65,0.00,0.00
15min,AgWx,beryljct,423,03SEP2021:22:15:00,64.0,12.9,57.1,56.7,58.8,61.5,56.6,56,61,48,0.945,43.0,44.5,41.4,0.965,2.1,64,88,5.1,-0.00008,-0.00008,66.6,66.9,22,0,0,.,13.66,0.00,0.00
15min,AgWx,beryljct,423,03SEP2021:22:30:00,62.2,12.88,54.7,54.3,55.6,56.9,54.3,66,73,59,1.045,44.5,45.8,42.7,0,0.5,314,20,2.5,-0.00028,-0.00043,66.4,66.9,22,0,0,.,13.66,0.00,0.00
15min,AgWx,beryljct,423,03SEP2021:22:45:00,60.6,12.89,53.6,53.4,54.5,56.1,52.4,70,73,66,0.952,44.9,46.2,43.3,2.017,2.0,318,20,5.6,-0.00014,-0.00017,66.1,66.9,22,0,0,.,13.66,0.00,0.00
15min,AgWx,beryljct,423,03SEP2021:23:00:00,59.1,12.88,57.0,55.0,53.4,55.2,52.3,70,76,60,0.886,43.9,45.2,41.4,1.622,1.9,246,39,3.4,-0.00014,-0.00017,66.0,66.9,22,0,0,.,13.66,0.00,0.00
15min,AgWx,beryljct,423,03SEP2021:23:15:00,58.1,12.87,56.7,58.8,57.4,59.7,55.2,58,65,53,1.011,42.7,45.3,40.5,0,0.5,239,0.1,1.5,-0.00029,-0.00043,65.9,66.9,22,0,0,.,13.67,0.00,0.00
15min,AgWx,beryljct,423,03SEP2021:23:30:00,57.6,12.85,54.6,55.8,56.7,58.6,55.6,60,68,52,0.965,43.0,45.6,40.8,1.622,1.6,240,2.7,3.0,-0.00015,-0.00019,65.7,66.8,22,0,0,.,13.67,0.00,0.00
15min,AgWx,beryljct,423,03SEP2021:23:45:00,57.1,12.86,51.9,53.7,55.2,56.7,53.7,65,70,59,0.967,43.7,44.7,42.5,3.529,1.9,219,47,4.7,-0.00013,-0.00017,65.4,66.8,22,0,0,.,13.67,0.00,0.00
15min,AgWx,bigpiney,439,03SEP2021:00:00:00,48.6,12.59,43.9,43.9,44.9,45.9,43.9,85,87,83,0.847,40.7,41.3,40.2,3.705,4.0,267,14,5.0,-0.00007,-0.00007,53.2,52.7,45,0,0,0.0,4.25,0.00,0.00
15min,AgWx,bigpiney,439,03SEP2021:00:15:00,48.1,12.57,44.2,44.0,43.8,44.0,43.6,88,89,87,0.867,40.5,40.9,40.2,5.437,5.5,242,8.1,7.9,-0.00005,-0.00005,53.2,52.6,45,0,0,0.0,4.25,0.00,0.00
15min,AgWx,bigpiney,439,03SEP2021:00:30:00,47.8,12.57,44.4,44.3,44.2,44.5,43.9,88,89,88,0.872,41.0,41.3,40.6,5.174,4.9,241,8.8,6.1,-0.00006,-0.00007,53.2,52.6,45,0,0,0.0,4.25,0.00,0.00
15min,AgWx,bigpiney,439,03SEP2021:00:45:00,47.6,12.56,45.0,44.7,44.5,44.8,44.3,88,88,87,0.880,41.1,41.3,40.9,4.56,4.7,235,7.0,6.5,-0.00006,-0.00007,53.1,52.6,45,0,0,0.0,4.25,0.00,0.00
15min,AgWx,bigpiney,439,03SEP2021:01:00:00,47.5,12.55,44.6,44.4,44.5,44.8,44.0,88,89,87,0.883,41.1,41.5,40.6,5.174,4.7,234,9.5,5.9,-0.00007,-0.00007,53.0,52.6,45,0,0,0.0,4.25,0.00,0.00
15min,AgWx,bigpiney,439,03SEP2021:01:15:00,47.4,12.54,45.7,45.2,44.9,45.2,44.4,88,89,87,0.887,41.5,41.8,41.3,5.809,5.4,249,10,7.4,-0.00005,-0.00005,53.0,52.6,45,0,0,0.0,4.25,0.00,0.00
15min,AgWx,bigpiney,439,03SEP2021:01:30:00,47.4,12.55,44.1,44.3,45.0,45.4,44.3,87,87,86,0.863,41.2,41.6,40.7,4.867,4.5,244,11,6.6,-0.00006,-0.00006,53.0,52.6,45,0,0,0.0,4.25,0.00,0.00
15min,AgWx,bigpiney,439,03SEP2021:01:45:00,47.2,12.53,44.1,44.2,44.0,44.4,43.2,88,90,87,0.864,40.8,41.3,39.9,3.902,4.3,218,9.7,5.0,-0.00008,-0.00008,52.9,52.6,45,0,0,0.0,4.25,0.00,0.00
15min,AgWx,bigpiney,439,03SEP2021:02:00:00,46.9,12.52,43.8,43.7,44.0,44.2,43.7,88,89,88,0.854,40.7,41.0,40.4,2.718,1.6,211,11,3.9,-0.00016,-0.00022,52.8,52.6,45,0,0,0.0,4.25,0.00,0.00
15min,AgWx,bigpiney,439,03SEP2021:02:15:00,46.2,12.51,38.7,38.6,41.3,43.6,38.6,89,91,88,0.720,38.3,40.5,35.9,4.845,4.3,189,6.4,5.2,-0.00008,-0.00009,52.8,52.5,45,0,0,0.0,4.25,0.00,0.00
15min,AgWx,bigpiney,439,03SEP2021:02:30:00,45.1,12.5,37.9,37.7,37.9,38.8,36.9,92,94,91,0.716,35.9,36.6,34.8,4.143,4.6,207,13,5.4,-0.00008,-0.00009,52.8,52.5,45,0,0,0.0,4.25,0.00,0.00
15min,AgWx,bigpiney,439,03SEP2021:02:45:00,43.9,12.49,38.0,36.9,38.2,39.7,36.2,94,94,92,0.693,36.5,38.2,34.2,1.337,3.3,208,48,5.2,-0.00011,-0.00013,52.7,52.5,45,0,1,0.0,4.25,0.00,0.00
15min,AgWx,bigpiney,439,03SEP2021:03:00:00,43.0,12.47,38.3,38.1,37.6,38.2,36.8,94,94,93,0.733,36.0,36.7,35.2,3.902,3.0,219,12,4.5,-0.00012,-0.00014,52.6,52.5,45,0,1,0.0,4.25,0.00,0.00
15min,AgWx,bigpiney,439,03SEP2021:03:15:00,42.4,12.46,41.3,40.9,38.6,40.9,37.4,94,95,94,0.825,37.2,39.6,35.9,0,2.6,223,11,4.2,-0.00013,-0.00016,52.6,52.5,45,0,1,0.0,4.25,0.00,0.00
15min,AgWx,bigpiney,439,03SEP2021:03:30:00,42.0,12.45,37.1,37.1,38.4,41.5,37.0,93,95,91,0.699,36.5,40.1,34.8,5.349,3.2,298,29,5.3,-0.00011,-0.00014,52.5,52.5,45,0,1,0.0,4.25,0.00,0.00
15min,AgWx,bigpiney,439,03SEP2021:03:45:00,41.5,12.44,39.3,38.9,38.0,38.9,36.9,94,95,93,0.763,36.5,37.6,35.2,4.143,3.5,328,8.4,5.6,-0.00011,-0.00013,52.5,52.4,45,0,1,0.0,4.25,0.00,0.00
15min,AgWx,bigpiney,439,03SEP2021:04:00:00,41.3,12.42,40.1,39.8,39.3,39.8,38.5,95,95,95,0.789,37.9,38.5,37.1,3.727,4.1,319,13,5.0,-0.00010,-0.00012,52.4,52.5,45,0,1,0.0,4.25,0.00,0.00
15min,AgWx,bigpiney,439,03SEP2021:04:15:00,41.6,12.42,41.4,40.9,40.3,40.9,39.8,95,95,95,0.823,39.0,39.5,38.5,5.853,4.2,306,8.2,5.9,-0.00011,-0.00012,52.3,52.4,45,0,1,0.0,4.25,0.00,0.00
15min,AgWx,bigpiney,439,03SEP2021:04:30:00,42.2,12.4,42.3,42.1,41.6,42.1,40.9,94,95,93,0.844,40.0,40.3,39.5,4.867,4.4,310,12,5.9,-0.00010,-0.00012,52.3,52.4,45,0,1,0.0,4.25,0.00,0.00
15min,AgWx,bigpiney,439,03SEP2021:04:45:00,42.9,12.4,43.4,43.2,42.6,43.2,42.1,92,93,91,0.865,40.4,40.8,40.1,4.757,4.2,302,10,5.8,-0.00009,-0.00011,52.2,52.3,45,0,1,0.0,4.25,0.00,0.00
15min,AgWx,bigpiney,439,03SEP2021:05:00:00,43.6,12.4,41.0,41.0,43.0,43.9,41.0,90,91,88,0.790,40.2,41.2,38.2,3.486,3.7,227,46,5.1,-0.00010,-0.00011,52.2,52.3,45,0,1,0.0,4.25,0.00,0.00
15min,AgWx,bigpiney,439,03SEP2021:05:15:00,43.9,12.39,44.4,43.6,41.3,43.6,40.5,92,93,91,0.899,39.2,41.8,38.2,4.45,2.2,259,53,6.0,-0.00014,-0.00018,52.1,52.3,45,0,1,0.0,4.25,0.00,0.00
15min,AgWx,bigpiney,439,03SEP2021:05:30:00,44.4,12.38,45.1,44.9,44.6,44.9,43.7,90,93,88,0.892,41.7,42.0,41.6,4.319,5.7,325,11,7.4,-0.00006,-0.00006,52.0,52.3,45,0,0,0.0,4.25,0.00,0.00
15min,AgWx,bigpiney,439,03SEP2021:05:45:00,45.0,12.37,44.1,44.2,44.9,45.2,44.2,87,89,86,0.873,41.3,41.7,40.9,4.998,3.5,70,85,6.0,-0.00009,-0.00010,52.0,52.2,45,1,1,0.0,4.25,0.00,0.00
15min,AgWx,bigpiney,439,03SEP2021:06:00:00,45.5,12.37,44.3,43.5,43.7,44.2,43.2,91,92,89,0.885,41.1,41.4,40.9,10.28,6.8,184,56,13.7,-0.00004,-0.00004,51.9,52.2,45,2,1,0.0,4.25,0.00,0.00
15min,AgWx,bigpiney,439,03SEP2021:06:15:00,45.8,12.43,45.0,44.8,44.8,45.4,43.7,90,92,87,0.894,41.9,42.5,41.5,7.278,5.7,112,92,11.2,-0.00002,0.00005,51.9,52.2,45,15,1,0.0,4.26,0.00,0.01
15min,AgWx,bigpiney,439,03SEP2021:06:30:00,46.0,12.4,44.1,44.0,44.4,44.8,44.0,89,91,88,0.893,41.5,41.7,41.2,6.007,6.8,166,19,8.6,0.00006,0.00015,51.8,52.1,45,38,1,0.0,4.26,0.00,0.00
15min,AgWx,bigpiney,439,03SEP2021:06:45:00,46.1,12.36,45.2,44.8,44.3,44.8,44.0,91,92,91,0.919,41.9,42.4,41.6,8.05,8.2,226,7.0,13.0,0.00018,0.00027,51.8,52.2,45,13,1,0.0,4.27,0.00,0.01
15min,AgWx,bigpiney,439,03SEP2021:07:00:00,46.4,12.37,45.7,45.5,45.3,45.5,44.8,90,91,89,0.924,42.5,42.5,42.4,4.954,7.3,153,62,13.9,0.00018,0.00028,51.7,52.1,45,8,1,0.0,4.27,0.00,0.00
15min,AgWx,bigpiney,439,03SEP2021:07:15:00,46.6,12.42,47.1,46.9,45.8,46.9,45.3,88,89,84,0.914,42.4,42.6,42.1,6.708,10.6,350,18,18.4,0.00035,0.00052,51.7,52.1,45,34,1,0.0,4.27,0.00,0.00
15min,AgWx,bigpiney,439,03SEP2021:07:30:00,46.7,12.96,46.0,45.8,45.6,46.8,45.0,87,90,83,0.937,42.0,43.2,41.4,9.8,6.9,353,13,10.6,0.00058,0.00072,51.7,52.1,45,126,1,0.0,4.27,0.00,0.00
15min,AgWx,bigpiney,439,03SEP2021:07:45:00,47.2,13.45,48.5,47.8,46.9,47.8,45.8,88,89,85,0.966,43.5,43.9,42.8,7.804,8.0,338,9.0,10.1,0.00097,0.00115,51.6,52.0,45,257,1,0.0,4.27,0.00,0.00
15min,AgWx,bigpiney,439,03SEP2021:08:00:00,48.4,13.54,48.5,48.8,48.3,49.0,47.8,84,86,83,0.986,43.9,45.1,43.2,5.678,5.9,346,15,9.3,0.00127,0.00148,51.6,52.1,45,306,1,0.0,4.27,0.00,0.00
15min,AgWx,bigpiney,439,03SEP2021:08:15:00,49.9,13.72,50.3,50.1,49.2,50.1,48.5,83,86,81,1.027,44.2,45.7,43.3,2.389,4.9,358,15,8.1,0.00156,0.00177,51.5,52.0,45,355,1,0.0,4.27,0.00,0.00